Location: ????????
(55.3939°N, 37.4780°E)
Time: 17:16:58
(UTC+00:00)

Cosmos 2150 Rocket - Pass Details

Date: 14 April 2026
Orbit: 745 x 804 km, 74.0° (Epoch: 16 May)

Event Time Altitude Azimuth Distance (km) Brightness Sun altitude
Exits shadow 19:28:22 42° 131° (SE) 1,069 4.3 -20.2°
Maximum altitude 19:29:06 45° 107° (ESE) 1,026 4.3 -20.2°
Drops below altitude 10° 19:34:01 10° 36° (NE) 2,299 6.7 -20.6°
Sets 19:36:29 0° 31° (NNE) 3,238 7.6 -20.8°
